Time,TemperatureF,DewpointF,PressureIn,WindDirection,WindDirectionDegrees,WindSpeedMPH,WindSpeedGustMPH,Humidity,HourlyPrecipIn,Conditions,Clouds,dailyrainin,SoftwareType,DateUTC
2013-11-07 07:31:00,28.9,23.0,25.56,West,269,2.0,5.0,80,0.00,,,0.00,weatherlink.com 1.10,2013-11-07 14:31:00,
2013-11-07 07:34:00,29.1,23.0,25.56,WNW,301,6.0,6.0,79,0.00,,,0.00,weatherlink.com 1.10,2013-11-07 14:34:00,
2013-11-07 07:49:00,29.4,23.0,25.56,WSW,248,5.0,8.0,78,0.00,,,0.00,weatherlink.com 1.10,2013-11-07 14:49:00,
2013-11-07 08:04:00,30.5,24.0,25.56,WNW,297,3.0,5.0,78,0.00,,,0.00,weatherlink.com 1.10,2013-11-07 15:04:00,
2013-11-07 08:19:00,33.1,26.0,25.56,NW,311,3.0,5.0,76,0.00,,,0.00,weatherlink.com 1.10,2013-11-07 15:19:00,
2013-11-07 08:34:00,35.5,27.0,25.56,West,279,2.0,10.0,72,0.00,,,0.00,weatherlink.com 1.10,2013-11-07 15:34:00,
2013-11-07 08:49:00,38.4,29.0,25.56,West,260,6.0,8.0,68,0.00,,,0.00,weatherlink.com 1.10,2013-11-07 15:49:00,
2013-11-07 09:04:00,39.6,28.0,25.56,WSW,256,11.0,11.0,63,0.00,,,0.00,weatherlink.com 1.10,2013-11-07 16:04:00,
2013-11-07 09:19:00,40.1,28.0,25.55,West,270,9.0,12.0,63,0.00,,,0.00,weatherlink.com 1.10,2013-11-07 16:19:00,
2013-11-07 09:34:00,41.5,29.0,25.55,WSW,252,7.0,12.0,61,0.00,,,0.00,weatherlink.com 1.10,2013-11-07 16:34:00,
2013-11-07 09:49:00,43.6,29.0,25.55,WSW,257,12.0,15.0,56,0.00,,,0.00,weatherlink.com 1.10,2013-11-07 16:49:00,
2013-11-07 10:04:00,44.8,28.0,25.55,SW,233,9.0,16.0,52,0.00,,,0.00,weatherlink.com 1.10,2013-11-07 17:04:00,
2013-11-07 10:19:00,46.8,27.0,25.54,SW,225,12.0,14.0,47,0.00,,,0.00,weatherlink.com 1.10,2013-11-07 17:19:00,
2013-11-07 10:34:00,47.9,27.0,25.53,SW,223,8.0,12.0,44,0.00,,,0.00,weatherlink.com 1.10,2013-11-07 17:34:00,
2013-11-07 10:49:00,48.3,26.0,25.53,South,191,8.0,15.0,42,0.00,,,0.00,weatherlink.com 1.10,2013-11-07 17:49:00,
2013-11-07 11:04:00,49.2,26.0,25.52,ESE,108,9.0,16.0,41,0.00,,,0.00,weatherlink.com 1.10,2013-11-07 18:04:00,
2013-11-07 11:19:00,50.0,26.0,25.51,SSW,210,11.0,16.0,39,0.00,,,0.00,weatherlink.com 1.10,2013-11-07 18:19:00,
2013-11-07 11:34:00,51.0,26.0,25.50,South,176,9.0,16.0,38,0.00,,,0.00,weatherlink.com 1.10,2013-11-07 18:34:00,
2013-11-07 11:50:00,51.6,26.0,25.49,South,180,6.0,14.0,37,0.00,,,0.00,weatherlink.com 1.10,2013-11-07 18:50:00,
2013-11-07 12:05:00,52.8,26.0,25.48,SW,231,6.0,11.0,36,0.00,,,0.00,weatherlink.com 1.10,2013-11-07 19:05:00,
2013-11-07 12:20:00,53.2,25.0,25.47,SSE,153,4.0,11.0,33,0.00,,,0.00,weatherlink.com 1.10,2013-11-07 19:20:00,
2013-11-07 12:35:00,52.9,26.0,25.47,WSW,243,3.0,10.0,36,0.00,,,0.00,weatherlink.com 1.10,2013-11-07 19:35:00,
2013-11-07 12:50:00,53.8,27.0,25.46,ESE,114,5.0,9.0,35,0.00,,,0.00,weatherlink.com 1.10,2013-11-07 19:50:00,
2013-11-07 13:05:00,54.0,27.0,25.45,East,94,3.0,11.0,36,0.00,,,0.00,weatherlink.com 1.10,2013-11-07 20:05:00,
2013-11-07 13:35:00,55.2,25.0,25.44,SSW,203,4.0,14.0,31,0.00,,,0.00,weatherlink.com 1.10,2013-11-07 20:35:00,
2013-11-07 13:50:00,55.9,25.0,25.43,WSW,248,8.0,12.0,30,0.00,,,0.00,weatherlink.com 1.10,2013-11-07 20:50:00,
2013-11-07 14:05:00,55.7,25.0,25.43,SW,232,5.0,9.0,31,0.00,,,0.00,weatherlink.com 1.10,2013-11-07 21:05:00,
2013-11-07 14:20:00,56.5,25.0,25.42,WSW,243,2.0,14.0,30,0.00,,,0.00,weatherlink.com 1.10,2013-11-07 21:20:00,
2013-11-07 14:35:00,55.9,25.0,25.41,South,191,6.0,13.0,30,0.00,,,0.00,weatherlink.com 1.10,2013-11-07 21:35:00,
2013-11-07 14:50:00,55.7,25.0,25.41,SSW,200,3.0,8.0,31,0.00,,,0.00,weatherlink.com 1.10,2013-11-07 21:50:00,
2013-11-07 15:05:00,55.7,26.0,25.41,SSW,208,5.0,9.0,32,0.00,,,0.00,weatherlink.com 1.10,2013-11-07 22:05:00,
2013-11-07 15:20:00,57.3,25.0,25.40,SSW,194,5.0,7.0,29,0.00,,,0.00,weatherlink.com 1.10,2013-11-07 22:20:00,
2013-11-07 15:35:00,57.8,26.0,25.39,South,177,5.0,12.0,29,0.00,,,0.00,weatherlink.com 1.10,2013-11-07 22:35:00,
2013-11-07 15:50:00,54.7,26.0,25.39,SE,143,6.0,14.0,33,0.00,,,0.00,weatherlink.com 1.10,2013-11-07 22:50:00,
2013-11-07 16:05:00,52.4,27.0,25.39,SSE,153,3.0,7.0,37,0.00,,,0.00,weatherlink.com 1.10,2013-11-07 23:05:00,
2013-11-07 16:20:00,50.4,27.0,25.38,SW,221,4.0,10.0,41,0.00,,,0.00,weatherlink.com 1.10,2013-11-07 23:20:00,
2013-11-07 16:35:00,49.7,27.0,25.38,SSW,200,8.0,9.0,42,0.00,,,0.00,weatherlink.com 1.10,2013-11-07 23:35:00,
2013-11-07 16:50:00,49.1,28.0,25.37,SE,139,3.0,7.0,44,0.00,,,0.00,weatherlink.com 1.10,2013-11-07 23:50:00,
2013-11-07 17:05:00,48.1,29.0,25.36,SSW,205,4.0,7.0,48,0.00,,,0.00,weatherlink.com 1.10,2013-11-08 00:05:00,
2013-11-07 17:20:00,48.3,28.0,25.36,SW,233,8.0,11.0,45,0.00,,,0.00,weatherlink.com 1.10,2013-11-08 00:20:00,
2013-11-07 17:35:00,48.0,28.0,25.35,SSE,148,3.0,7.0,47,0.00,,,0.00,weatherlink.com 1.10,2013-11-08 00:35:00,
2013-11-07 17:50:00,47.6,29.0,25.35,South,174,4.0,8.0,48,0.00,,,0.00,weatherlink.com 1.10,2013-11-08 00:50:00,
2013-11-07 18:06:00,46.9,29.0,25.34,South,172,2.0,6.0,50,0.00,,,0.00,weatherlink.com 1.10,2013-11-08 01:06:00,
2013-11-07 18:21:00,46.8,28.0,25.34,SE,133,3.0,9.0,49,0.00,,,0.00,weatherlink.com 1.10,2013-11-08 01:21:00,
2013-11-07 18:36:00,46.5,28.0,25.33,SSW,211,3.0,7.0,49,0.00,,,0.00,weatherlink.com 1.10,2013-11-08 01:36:00,
2013-11-07 18:51:00,46.7,27.0,25.32,SE,127,6.0,11.0,47,0.00,,,0.00,weatherlink.com 1.10,2013-11-08 01:51:00,
2013-11-07 19:06:00,45.7,28.0,25.32,ESE,111,2.0,8.0,50,0.00,,,0.00,weatherlink.com 1.10,2013-11-08 02:06:00,
2013-11-07 19:21:00,45.5,27.0,25.31,SW,214,6.0,9.0,48,0.00,,,0.00,weatherlink.com 1.10,2013-11-08 02:21:00,
2013-11-07 19:36:00,45.3,26.0,25.30,SE,134,11.0,12.0,47,0.00,,,0.00,weatherlink.com 1.10,2013-11-08 02:36:00,
2013-11-07 19:51:00,45.6,26.0,25.29,SW,214,14.0,18.0,46,0.00,,,0.00,weatherlink.com 1.10,2013-11-08 02:51:00,
2013-11-07 20:06:00,45.8,24.0,25.28,SW,214,8.0,24.0,43,0.00,,,0.00,weatherlink.com 1.10,2013-11-08 03:06:00,
2013-11-07 20:21:00,45.8,24.0,25.27,SE,134,12.0,18.0,42,0.00,,,0.00,weatherlink.com 1.10,2013-11-08 03:21:00,
2013-11-07 20:36:00,45.9,23.0,25.26,South,179,14.0,21.0,41,0.00,,,0.00,weatherlink.com 1.10,2013-11-08 03:36:00,
2013-11-07 20:51:00,45.8,23.0,25.26,SSW,209,17.0,24.0,41,0.00,,,0.00,weatherlink.com 1.10,2013-11-08 03:51:00,
2013-11-07 21:06:00,45.6,23.0,25.25,SE,134,15.0,20.0,41,0.00,,,0.00,weatherlink.com 1.10,2013-11-08 04:06:00,
2013-11-07 21:21:00,45.2,23.0,25.25,SW,220,17.0,25.0,42,0.00,,,0.00,weatherlink.com 1.10,2013-11-08 04:21:00,
2013-11-07 21:36:00,45.3,23.0,25.24,SSE,162,18.0,27.0,42,0.00,,,0.00,weatherlink.com 1.10,2013-11-08 04:36:00,
2013-11-07 21:51:00,45.3,23.0,25.24,SSE,166,18.0,29.0,42,0.00,,,0.00,weatherlink.com 1.10,2013-11-08 04:51:00,
2013-11-07 22:06:00,45.1,23.0,25.23,SW,218,25.0,30.0,42,0.00,,,0.00,weatherlink.com 1.10,2013-11-08 05:06:00,
2013-11-07 22:21:00,44.8,23.0,25.23,SW,215,23.0,29.0,43,0.00,,,0.00,weatherlink.com 1.10,2013-11-08 05:21:00,
2013-11-07 22:36:00,44.4,24.0,25.23,SSW,212,19.0,24.0,44,0.00,,,0.00,weatherlink.com 1.10,2013-11-08 05:36:00,
2013-11-07 22:51:00,43.5,24.0,25.22,South,181,13.0,23.0,46,0.00,,,0.00,weatherlink.com 1.10,2013-11-08 05:51:00,
2013-11-07 23:06:00,42.9,24.0,25.22,SSW,205,13.0,23.0,47,0.00,,,0.00,weatherlink.com 1.10,2013-11-08 06:06:00,
2013-11-07 23:21:00,41.8,24.0,25.21,SW,228,10.0,14.0,49,0.00,,,0.00,weatherlink.com 1.10,2013-11-08 06:21:00,
2013-11-07 23:36:00,40.8,24.0,25.21,WNW,282,4.0,10.0,51,0.00,,,0.00,weatherlink.com 1.10,2013-11-08 06:36:00,
2013-11-07 23:51:00,38.7,24.0,25.20,WSW,237,10.0,15.0,56,0.00,,,0.00,weatherlink.com 1.10,2013-11-08 06:51:00,